Home > Time Zones > World Clock > Weather > Japan > Kobe > Past weeks

Flag for Japan Weather past 2 weeks in Kobe, Japan

Now
41 °F

Clear.


Feels Like: 37 °F
Forecast: 38 / 48 °F
Wind: 6 mph from Northwest

Location: Osaka International Airport

Current Time: Dec 19, 2014 at 11:31:25 PM

Latest Report: Dec 19, 2014 at 8:00 PM


Visibility: 10 mi

Pressure: 30.42 "Hg

Humidity: 66%

Dew point: 30 °F

Location of KobeLocation

Historic Weather in Kobe — Graph

°F

Kobe temperature yesterday

Maximum temperature yesterday: 41 °F (at 12:00 PM)
Minimum temperature yesterday: 30 °F (at 6:00 AM)
Average temperature yesterday: 36 °F

Past Weeks' High & Low Weather Summary

 TemperatureHumidityPressure
High55 °F (Dec 9, 12:00 PM)100% (Dec 11, 6:00 AM)30.51 "Hg (Dec 11, 6:00 AM)
Low30 °F (Dec 14, 6:00 AM)32% (Dec 13, 2:00 PM)29.65 "Hg (Dec 16, 1:00 PM)
Average43 °F60%30.12 "Hg
* Reported Dec 4 8:00 PM — Dec 19 8:00 PM, Kobe, Weather by CustomWeather, © 2014

Note: Actual official high and low records may vary slightly from our data, if they occured in-between our weather recording intervals... More about our weather records

Advertising

Kobe weather history for previous 24 hours

 ConditionsComfort  
Time TempWeatherWind HumidityBarometerVisibility
8:00 PM
Dec 19
41 °FClear.6 mph66%30.42 "Hg10 mi
7:00 PM41 °FPassing clouds.3 mph61%30.39 "HgN/A
6:00 PM43 °FPartly cloudy.2 mph49%30.39 "HgN/A
5:00 PM45 °FPassing clouds.1 mph46%30.39 "HgN/A
4:00 PM45 °FScattered clouds.1 mph46%30.42 "HgN/A
3:00 PM45 °FScattered clouds.2 mph46%30.42 "HgN/A
2:00 PM45 °FPartly sunny.3 mph46%30.42 "HgN/A
1:00 PM45 °FPassing clouds.3 mph46%30.42 "HgN/A
12:00 PM43 °FScattered clouds.2 mph53%30.45 "HgN/A
11:00 AM41 °FPartly sunny.2 mph57%30.51 "HgN/A
10:00 AM39 °FPartly sunny.1 mph61%30.51 "HgN/A
9:00 AM37 °FPartly sunny.1 mph70%30.51 "HgN/A
8:00 AM36 °FPartly sunny.No wind75%30.51 "HgN/A
7:00 AM34 °FPartly sunny.2 mph81%30.48 "HgN/A
6:00 AM34 °FPassing clouds.2 mph81%30.48 "HgN/A
5:00 AM34 °FPassing clouds.6 mph75%30.48 "HgN/A
Weather by CustomWeather, © 2014

See weather overviewHow to use our weather pages